Location: Unspecified
(0.0000°N, 0.0000°E)
Time: 22:23:57
(UTC+02:00)

Cosmos 540 Rocket - Visible Passes

Search period start: 20 July 2018 00:00
Search period end: 30 July 2018 00:00
Orbit: 741 x 753 km, 74.1° (Epoch: 19 July)

Date Brightness Start Highest point End Pass type
(mag) Time Alt. Az. Time Alt. Az. Time Alt. Az.
26 Jul 5.7 22:09:43 10° NNE 22:10:30 14° NNE 22:10:30 14° NNE visible
27 Jul 5.6 21:28:24 10° NE 21:28:37 11° NE 21:28:37 11° NE visible
27 Jul 6.3 23:07:59 10° NW 23:08:28 12° NW 23:08:28 12° NW visible
28 Jul 4.9 22:24:07 10° NNW 22:26:40 30° NNW 22:26:40 30° NNW visible
29 Jul 4.1 21:41:12 10° N 21:44:56 37° NE 21:44:56 37° NE visible
